SL-16 R/B (22566 NORAD) Tracking and Keplerian Element Data

This shows tracking and keplerian element data for the satellite.

Feedback or suggestion? Click here.




ElementValue
Catalog22566
NameSL-16 R/B
Epoch Orbit32850
Epoch Day349.18274335
Epoch Year2018
RAAN0.8299
Inclination71.0076
Eccentricity0.0009701
Argument of Perigee8.2283
Mean Anonmoly351.8996
Mean Motion14.14956716
Decay Rate-2.98E-06
L11 22566U 93016B 18349.18274335 -.00000298 00000-0 -12948-3 0 9996
L22 22566 71.0076 0.8299 0009701 8.2283 351.8996 14.14956716328505

Live tracking and technical data element details for SL-16 R/B (NORAD 22566). SL-16 R/B can be tracked NOW for your location showing map with azimuth and elevation plus other details from your city location.

Track the satellite on the map from your city or location and see movement details for azimuth, elevation, latitude, longitude, range, height, and movement on the map or in text.







IsCatalogInMostPopularTable: catalog: 22566, numindb: 34
Update: records affected: 1



GetName: 22566 SL-16 R/B

Hit Count: updated at: Sun, 16 Dec 2018 04:00:44 GMT